Regional Weather Roundup
Issued by NWS

Home | Current Version | Previous Version | Text Only | Print | Product List | Glossary On
Versions: 1 2 3 4 5 6 7 8 9 10 11 12 13 14 15 16 17 18 19 20 21 22 23 24 25 26 27 28 29 30 31 32 33 34 35 36 37 38 39 40 41 42 43 44 45 46 47 48 49 50
000
ASUS45 KREV 272310
RWRNV
NEVADA REGIONAL WEATHER ROUNDUP
NATIONAL WEATHER SERVICE RENO NV
400 PM PDT WED AUG 27 2014

NOTE: "FAIR" INDICATES FEW OR NO CLOUDS BELOW 12,000 FEET WITH NO
SIGNIFICANT WEATHER AND/OR OBSTRUCTIONS TO VISIBILITY.

NVZ001-003-004-280000-
WESTERN NEVADA

CITY           SKY/WX    TMP DP  RH WIND       PRES   REMARKS
RENO           MOSUNNY   88  31  13 NE6       30.15F
CARSON CITY    FAIR      86  28  12 NW3       30.18F
MINDEN           N/A    N/A N/A N/A MISG        N/A
PYRAMID LAKE     N/A     84 N/A N/A NE5         N/A
FALLON         SUNNY     88  32  13 VRB5      30.13F
LOVELOCK       SUNNY     88  38  17 VRB3      30.12F
HAWTHORNE      SUNNY     88  32  13 W7        30.15F
$$

NVZ002-CAZ072-073-280000-
NORTHERN AND CENTRAL SIERRA

CITY           SKY/WX    TMP DP  RH WIND       PRES   REMARKS
S. LAKE TAHOE  SUNNY     80  32  17 CALM      30.29F
TRUCKEE        MOSUNNY   82  34  17 NW6       30.26F
SQUAW VLY 8000   N/A     72  34  25 VRB7        N/A
SUSANVILLE     SUNNY     90  32  12 E3        30.12F
BLUE CANYON    SUNNY     77  43  29 SW9G18    30.27F
MAMMOTH LAKES  FAIR      81  25  12 NE6       30.32F
BRIDGEPORT     FAIR      82  26  13 VRB7      30.27F
$$

NVZ030-031-036-280000-
NORTHERN NEVADA

CITY           SKY/WX    TMP DP  RH WIND       PRES   REMARKS
ELKO           SUNNY     80  31  16 VRB7      30.20F
WINNEMUCCA     SUNNY     87  32  14 VRB7      30.16F
WENDOVER       SUNNY     81  43  26 SE5       30.18F
$$

NVZ035-037-280000-
CENTRAL NEVADA

CITY           SKY/WX    TMP DP  RH WIND       PRES   REMARKS
ELY            SUNNY     75  37  25 NE9       30.29S
EUREKA           N/A     77  35  21 E5        30.25F
$$

NVZ013-014-280000-
SOUTH CENTRAL NEVADA

CITY           SKY/WX    TMP DP  RH WIND       PRES   REMARKS
TONOPAH        SUNNY     85  26  11 MISG      30.22F
$$

NVZ017-020-022-280000-
SOUTHERN NEVADA

CITY           SKY/WX    TMP DP  RH WIND       PRES   REMARKS
LAS VEGAS      MOSUNNY   95  36  12 SE5       29.97F
N. LAS VEGAS   SUNNY     94  30  10 VRB5      30.00F
NELLIS AFB     SUNNY     94  42  16 SW5       29.98F
HENDERSON      SUNNY     95  32  11 W7        30.04F
MERCURY        SUNNY     92  28  10 S13G18    30.07F
$$


USA.gov is the U.S. government's official web portal to all federal, state and local government web resources and services.